Location: Austin
(30.3000°N, 97.7500°W)
Time: 02:05:58
(UTC-05:00)

Cosmos 2228 Rocket - Pass Details

Date: 01 October 2024
Orbit: 615 x 647 km, 82.5° (Epoch: 06 October)

Event Time Altitude Azimuth Distance (km) Brightness Sun altitude
Rises 20:35:54 0° 349° (N) 2,948 6.8 -18.2°
Reaches altitude 10° 20:38:10 10° 346° (NNW) 2,031 5.9 -18.6°
Maximum altitude 20:42:36 62° 267° (W) 717 3.6 -19.6°
Drops below altitude 10° 20:46:59 10° 186° (S) 2,000 5.6 -20.5°
Sets 20:49:13 0° 183° (S) 2,898 6.5 -21.0°
